sat.trackr.live / text

‹ back to catalog

STARLINK-32745

NORAD 62755 · 2025-014W

PAYLOAD ACTIVE UNKNOWN

§ Identity

Operator
Country
US
Launch date
2025-01-21
Launch site
AFETR
Launch vehicle
Mass (kg)
RCS (m²)

Purposes: comms

External: N2YO · Heavens-Above · Gunter

§ Orbital elements

Epoch: 2026-09-21T07:31:52.352832Z

Period
94.27 min
Inclination
42.9992°
Eccentricity
0.0001204
Mean motion
15.27582962 rev/d
Perigee alt
482.2 km
Apogee alt
483.9 km
Semi-major
6,861.2 km
B*
3.9590e-4
RAAN
129.7651°
Arg perigee
270.2910°
Mean anomaly
89.7803°
Rev number
9,317

§ Raw data

STARLINK-327451 62755U 25014W   26264.31380038  .00010649  00000+0  39590-3 0  99912 62755  42.9992 129.7651 0001204 270.2910  89.7803 15.27582962 93173

JSON: /api/v1/satellites/62755 · /tle

For live sub-satellite position, see the globe view (requires WebGL).

§ Visibility from observer

Set your observer location to see the next 7 days of passes ≥ 10°. The values pass through the URL so the page stays shareable.

No JS? Fill the form by hand. The geolocation button needs JavaScript.